Location: Glendale
(37.4556°N, 88.6714°W)
Time: 09:13:48
(UTC+00:00)

Cosmos 2195 Rocket - Pass Details

Date: 08 December 2019
Orbit: 949 x 993 km, 82.9° (Epoch: 24 January)

Event Time Altitude Azimuth Distance (km) Brightness Sun altitude
Rises 00:13:56 0° 186° (S) 3,628 7.8 -18.8°
Reaches altitude 10° 00:16:24 10° 187° (S) 2,691 7.1 -19.3°
Maximum altitude 00:22:35 86° 275° (W) 979 4.5 -20.5°
Drops below altitude 10° 00:28:53 10° 6° (N) 2,739 6.7 -21.7°
Sets 00:31:25 0° 7° (N) 3,697 7.3 -22.2°
